TimeCST,TemperatureF,Dew PointF,Humidity,Sea Level PressureIn,VisibilityMPH,Wind Direction,Wind SpeedMPH,Gust SpeedMPH,PrecipitationIn,Events,Conditions,WindDirDegrees,DateUTC
12:22 AM,33.8,33.8,100,30.07,1.8,WNW,5.8,-,0.01,Snow,Light Snow,300,2013-03-02 06:22:00
12:39 AM,33.8,33.8,100,30.06,2.0,WNW,4.6,-,0.01,Snow,Light Snow,300,2013-03-02 06:39:00
12:47 AM,33.8,33.8,100,30.07,2.5,WNW,4.6,-,0.01,Snow,Light Snow,300,2013-03-02 06:47:00
12:56 AM,32.9,32.9,100,30.08,3.0,WNW,5.8,-,0.01,Snow,Light Snow,300,2013-03-02 06:56:00
1:07 AM,33.8,33.8,100,30.07,4.0,NW,8.1,-,0.00,Snow,Light Snow,320,2013-03-02 07:07:00
1:56 AM,34.0,32.9,96,30.07,6.0,NNE,9.2,-,0.00,Snow,Light Snow,20,2013-03-02 07:56:00
2:37 AM,35.6,33.8,93,30.06,6.0,North,5.8,-,0.00,Snow,Light Snow,360,2013-03-02 08:37:00
2:46 AM,35.6,33.8,93,30.06,6.0,North,8.1,-,0.00,Snow,Light Snow,360,2013-03-02 08:46:00
2:56 AM,34.0,32.9,96,30.06,6.0,North,8.1,-,0.00,Snow,Light Snow,350,2013-03-02 08:56:00
3:32 AM,33.8,33.8,100,30.06,5.0,North,8.1,-,0.00,Snow,Light Snow,350,2013-03-02 09:32:00
3:46 AM,33.8,32.0,93,30.06,5.0,North,6.9,-,0.00,Snow,Light Snow,350,2013-03-02 09:46:00
3:56 AM,34.0,32.0,92,30.07,5.0,North,9.2,-,0.00,Snow,Light Snow,350,2013-03-02 09:56:00
4:56 AM,34.0,32.0,92,30.08,6.0,NNW,12.7,-,0.00,Snow,Light Snow,340,2013-03-02 10:56:00
5:32 AM,33.8,30.2,87,30.07,9.0,North,10.4,-,0.00,,Overcast,350,2013-03-02 11:32:00
5:48 AM,33.8,32.0,93,30.08,10.0,NNW,11.5,-,0.00,Snow,Light Snow,330,2013-03-02 11:48:00
5:56 AM,32.9,31.1,93,30.09,7.0,NNW,9.2,-,0.00,,Overcast,340,2013-03-02 11:56:00
6:56 AM,32.0,30.0,92,30.11,7.0,NNW,9.2,-,0.00,Snow,Light Snow,340,2013-03-02 12:56:00
7:56 AM,32.0,29.1,89,30.12,3.0,North,10.4,-,0.00,Snow,Light Snow,350,2013-03-02 13:56:00
8:56 AM,32.9,30.0,89,30.13,4.0,NNW,12.7,-,0.00,Snow,Light Snow,340,2013-03-02 14:56:00
9:56 AM,32.9,30.0,89,30.15,5.0,NNW,12.7,-,0.00,Snow,Light Snow,330,2013-03-02 15:56:00
10:56 AM,32.9,29.1,86,30.16,5.0,NNW,13.8,-,0.00,Snow,Light Snow,330,2013-03-02 16:56:00
11:56 AM,34.0,27.1,76,30.15,7.0,NNW,11.5,-,0.00,,Overcast,330,2013-03-02 17:56:00
12:56 PM,34.0,29.1,82,30.13,7.0,NW,15.0,-,0.00,Snow,Light Snow,310,2013-03-02 18:56:00
1:56 PM,34.0,27.1,76,30.13,7.0,NNW,10.4,-,0.00,Snow,Light Snow,330,2013-03-02 19:56:00
2:03 PM,33.8,26.6,75,30.12,7.0,NW,12.7,-,0.00,Snow,Light Snow,320,2013-03-02 20:03:00
2:56 PM,32.9,29.1,86,30.14,6.0,NW,13.8,-,0.00,Snow,Light Snow,320,2013-03-02 20:56:00
3:29 PM,32.0,30.2,93,30.13,2.0,NW,13.8,-,0.00,Snow,Light Snow,320,2013-03-02 21:29:00
3:56 PM,32.0,30.0,92,30.14,2.5,NNW,10.4,-,0.00,Snow,Light Snow,330,2013-03-02 21:56:00
4:06 PM,33.8,28.4,81,30.13,6.0,NNW,9.2,-,0.00,Snow,Light Snow,330,2013-03-02 22:06:00
4:56 PM,32.0,28.0,85,30.16,8.0,NNW,8.1,-,0.00,Snow,Light Snow,330,2013-03-02 22:56:00
5:56 PM,32.0,29.1,89,30.17,1.5,NW,8.1,-,0.00,Snow,Light Snow,320,2013-03-02 23:56:00
6:03 PM,32.0,28.4,87,30.16,4.0,NNW,8.1,-,0.00,,Overcast,330,2013-03-03 00:03:00
6:56 PM,31.1,29.1,92,30.18,-9999.0,NW,10.4,-,0.00,,Overcast,320,2013-03-03 00:56:00
7:03 PM,30.2,28.4,93,30.16,8.0,NNW,11.5,-,0.00,Snow,Light Snow,330,2013-03-03 01:03:00
7:25 PM,30.2,28.4,93,30.16,10.0,NW,9.2,-,0.00,Snow,Light Snow,320,2013-03-03 01:25:00
7:39 PM,30.2,28.4,93,30.17,9.0,NNW,10.4,-,0.00,Snow,Light Snow,330,2013-03-03 01:39:00
7:56 PM,31.1,28.0,88,30.18,10.0,NNW,10.4,-,0.00,,Overcast,330,2013-03-03 01:56:00
8:56 PM,31.1,28.0,88,30.18,10.0,NW,9.2,-,0.00,,Overcast,310,2013-03-03 02:56:00
9:56 PM,31.1,27.1,85,30.19,10.0,NW,10.4,-,0.00,,Overcast,320,2013-03-03 03:56:00
10:05 PM,30.2,26.6,86,30.18,10.0,NNW,8.1,-,N/A,,Overcast,330,2013-03-03 04:05:00
10:56 PM,31.1,25.2,79,30.18,10.0,NNW,10.4,-,N/A,,Overcast,340,2013-03-03 04:56:00
11:56 PM,31.1,22.1,69,30.18,10.0,NNW,11.5,-,N/A,,Overcast,330,2013-03-03 05:56:00